TimeCST,TemperatureF,Dew PointF,Humidity,Sea Level PressureIn,VisibilityMPH,Wind Direction,Wind SpeedMPH,Gust SpeedMPH,PrecipitationIn,Events,Conditions,WindDirDegrees,DateUTC
12:53 AM,44.1,23.0,43,30.31,10.0,NNW,3.5,-,N/A,,Clear,330,2013-03-06 06:53:00
1:53 AM,43.0,21.9,43,30.33,10.0,North,4.6,-,N/A,,Clear,350,2013-03-06 07:53:00
2:53 AM,43.0,21.9,43,30.33,10.0,NNW,4.6,-,N/A,,Clear,340,2013-03-06 08:53:00
3:53 AM,37.0,24.1,59,30.33,10.0,NNW,3.5,-,N/A,,Clear,340,2013-03-06 09:53:00
4:53 AM,33.1,24.1,70,30.35,10.0,Calm,Calm,-,N/A,,Clear,0,2013-03-06 10:53:00
5:53 AM,37.9,23.0,55,30.37,10.0,NNW,3.5,-,N/A,,Clear,340,2013-03-06 11:53:00
6:53 AM,30.0,24.1,79,30.40,10.0,WSW,3.5,-,N/A,,Clear,250,2013-03-06 12:53:00
7:53 AM,39.0,27.0,62,30.42,10.0,Calm,Calm,-,N/A,,Clear,0,2013-03-06 13:53:00
8:53 AM,46.9,24.1,41,30.43,10.0,NNE,8.1,-,N/A,,Clear,20,2013-03-06 14:53:00
9:53 AM,51.1,24.1,35,30.43,10.0,North,5.8,-,N/A,,Clear,350,2013-03-06 15:53:00
10:53 AM,54.0,21.9,29,30.42,10.0,Variable,3.5,-,N/A,,Clear,0,2013-03-06 16:53:00
11:53 AM,57.0,21.0,25,30.40,10.0,Calm,Calm,-,N/A,,Clear,0,2013-03-06 17:53:00
12:53 PM,61.0,19.9,21,30.36,10.0,Variable,4.6,-,N/A,,Clear,0,2013-03-06 18:53:00
1:53 PM,64.0,19.9,18,30.32,10.0,NW,5.8,-,N/A,,Clear,320,2013-03-06 19:53:00
2:53 PM,64.9,16.0,15,30.29,10.0,WNW,8.1,-,N/A,,Clear,290,2013-03-06 20:53:00
3:53 PM,66.0,16.0,15,30.28,10.0,Variable,5.8,-,N/A,,Clear,0,2013-03-06 21:53:00
4:53 PM,64.0,14.0,14,30.25,10.0,NNW,6.9,-,N/A,,Clear,330,2013-03-06 22:53:00
5:53 PM,62.1,19.0,19,30.25,10.0,Calm,Calm,-,N/A,,Clear,0,2013-03-06 23:53:00
6:53 PM,54.0,32.0,43,30.25,10.0,Calm,Calm,-,N/A,,Clear,0,2013-03-07 00:53:00
7:53 PM,48.9,32.0,52,30.26,9.0,Calm,Calm,-,N/A,,Clear,0,2013-03-07 01:53:00
8:53 PM,44.1,35.1,71,30.26,10.0,Calm,Calm,-,N/A,,Clear,0,2013-03-07 02:53:00
9:53 PM,44.1,34.0,68,30.27,10.0,Calm,Calm,-,N/A,,Clear,0,2013-03-07 03:53:00
10:53 PM,43.0,32.0,65,30.26,10.0,Calm,Calm,-,N/A,,Clear,0,2013-03-07 04:53:00
11:53 PM,41.0,33.1,73,30.25,10.0,Calm,Calm,-,N/A,,Clear,0,2013-03-07 05:53:00